EW1233 Weather Reports


time (UTC)temp
C
wind
direction
speed
KPH
gust
KPH
rain 1hr
cm
rain 24hr
cm
rain mn
cm
humidity
%
barometer
mb
20260504081608 8 5 0.0 12.9 0.00 0.00 0.00 72 999.2
20260504050107 13 219 20.9 29.0 0.00 0.00 0.00 61 997.8
20260504044544 13 223 16.1 29.0 0.00 0.00 0.00 61 998.1
20260504043106 13 224 16.1 30.6 0.00 0.00 0.00 60 998.3
20260504041528 13 208 17.7 29.0 0.00 0.00 0.00 59 998.7
20260504040107 12 223 16.1 22.5 0.00 0.00 0.00 60 998.8
20260504034535 13 223 9.7 16.1 0.00 0.00 0.00 60 999.0
20260504033113 13 223 12.9 22.5 0.00 0.00 0.00 58 999.1
20260504031515 13 221 12.9 19.3 0.00 0.00 0.00 57 999.4
20260504030056 13 215 14.5 20.9 0.00 0.00 0.00 56 999.6
20260504024517 13 214 12.9 19.3 0.00 0.00 0.00 55 999.7
20260504023051 13 221 12.9 20.9 0.00 0.00 0.00 57 999.8
20260504021502 13 216 12.9 17.7 0.00 0.00 0.00 55 999.7
20260504020040 14 219 11.3 16.1 0.00 0.00 0.00 53 999.9
20260504014531 15 219 9.7 16.1 0.00 0.00 0.00 51 1000.2
20260504013106 16 222 8.0 12.9 0.00 0.00 0.00 49 1000.4
20260504011520 17 221 9.7 17.7 0.00 0.00 0.00 46 1000.5
20260504010107 18 216 9.7 19.3 0.00 0.00 0.00 43 1000.9
20260504004557 19 217 12.9 27.4 0.00 0.00 0.00 39 1001.2
20260504003056 20 230 14.5 25.7 0.00 0.00 0.00 35 1001.6
20260504001611 20 232 11.3 27.4 0.00 0.00 0.00 34 1001.8
20260504000050 20 236 12.9 33.8 0.00 0.00 0.00 34 1002.2
20260503234548 20 235 16.1 32.2 0.00 0.00 0.00 33 1002.7
20260503233047 21 251 16.1 29.0 0.00 0.00 0.00 32 1002.9
20260503231545 21 239 14.5 24.1 0.00 0.00 0.00 33 1003.1
20260503230043 21 250 19.3 30.6 0.00 0.00 0.00 31 1003.3
20260503224542 21 229 19.3 30.6 0.00 0.00 0.00 32 1003.5
20260503223042 21 232 12.9 22.5 0.00 0.00 0.00 31 1003.9
20260503221542 21 275 11.3 29.0 0.00 0.00 0.00 29 1004.1
20260503220044 21 277 9.7 24.1 0.00 0.00 0.00 32 1004.4
20260503214532 21 254 17.7 25.7 0.00 0.00 0.00 31 1004.7
20260503213037 21 250 6.4 25.7 0.00 0.00 0.00 29 1005.1
20260503211528 21 248 11.3 22.5 0.00 0.00 0.00 29 1005.5
20260503210026 21 257 11.3 22.5 0.00 0.00 0.00 30 1005.7
20260503204526 21 297 8.0 24.1 0.00 0.00 0.00 28 1006.0
20260503203022 21 300 8.0 20.9 0.00 0.00 0.00 28 1006.3
20260503201527 21 279 8.0 19.3 0.00 0.00 0.00 27 1006.7
20260503200016 20 240 9.7 22.5 0.00 0.00 0.00 28 1007.1
20260503194511 20 325 6.4 24.1 0.00 0.00 0.00 30 1007.3
20260503193008 20 223 11.3 22.5 0.00 0.00 0.00 30 1007.5
20260503191506 20 299 4.8 14.5 0.00 0.00 0.00 30 1007.8
20260503190024 20 263 9.7 22.5 0.00 0.00 0.00 31 1008.1
20260503184525 19 252 11.3 22.5 0.00 0.00 0.00 32 1008.4
20260503183024 19 303 8.0 27.4 0.00 0.00 0.00 34 1008.9
20260503181525 19 310 8.0 22.5 0.00 0.00 0.00 32 1009.1
20260503180009 18 240 6.4 19.3 0.00 0.00 0.00 37 1009.3
20260503174506 18 225 6.4 19.3 0.00 0.00 0.00 35 1009.7
20260503173015 18 292 11.3 25.7 0.00 0.00 0.00 37 1009.9
20260503171504 18 285 8.0 16.1 0.00 0.00 0.00 38 1010.1
20260503100107 5 360 0.0 0.0 0.00 0.00 0.00 82 1011.4